Sitka, Alaska, United States (99835)
Lat: 57.05N, Lon: 135.33W
Wx Zone: AKZ023
Local Info
Past Weather Observations for Today

NOTE: This archive is for the closest National Weather Service station to Sitka. Information may differ from the station used for current weather conditions.

Click here for Long-term Archive

Time Weather Temperature Dewpoint Humidity Pressure Winds Precip Visibility
12:53
Mostly Cloudy
39°F / 4°C 37°F / 3°C 93% 29.53 in
(1000 mb)
E 11.5 mph
(E 19 kph)
0.09 in
(2.29 mm)
10SM
11:53
Overcast
Rain
39°F / 4°C 37°F / 3°C 93% 29.53 in
(1000 mb)
SE 10.4 mph
(SE 17 kph)
0.04 in
(1.02 mm)
5SM
11:10
Overcast
Light Rain
41°F / 5°C 39°F / 4°C 93% 29.53 in
(1000 mb)
SE 12.7 mph
(SE 20 kph)
0.01 in
(0.25 mm)
10SM
10:53
Overcast
Rain
39°F / 4°C 37°F / 3°C 93% 29.53 in
(1000 mb)
SE 8.1 mph
(SE 13 kph)
0.12 in
(3.05 mm)
10SM
10:50
Overcast
Rain
39°F / 4°C 37°F / 3°C 93% 29.53 in
(1000 mb)
SE 8.1 mph
(SE 13 kph)
0.12 in
(3.05 mm)
1 1/2SM
10:46
Overcast
Fog And Mist
39°F / 4°C 37°F / 3°C 93% 29.53 in
(1000 mb)
S 15 mph
(S 24 kph)
0.10 in
(2.54 mm)
2 1/2SM
10:43
Overcast
Fog And Mist
41°F / 5°C 37°F / 3°C 87% 29.53 in
(1000 mb)
SSE 13.8 mph
(SSE 22 kph)
0.08 in
(2.03 mm)
4SM
10:31
Overcast
Light Rain
41°F / 5°C 37°F / 3°C 87% 29.5 in
(999 mb)
ESE 13.8 mph
(ESE 22 kph)
0.03 in
(0.76 mm)
10SM
10:00
Overcast
Rain
41°F / 5°C 37°F / 3°C 87% 29.53 in
(1000 mb)
E 13.8 mph
(E 22 kph)
0.01 in
(0.25 mm)
3SM
09:53
Overcast
Light Rain
41°F / 5°C 37°F / 3°C 87% 29.53 in
(1000 mb)
ESE 12.7 mph
(ESE 20 kph)
0.04 in
(1.02 mm)
10SM
09:25
Overcast
Light Rain
39°F / 4°C 39°F / 4°C 100% 29.53 in
(1000 mb)
E 11.5 mph
(E 19 kph)
0.03 in
(0.76 mm)
10SM
08:53
Overcast
Rain
39°F / 4°C 37°F / 3°C 93% 29.53 in
(1000 mb)
SE 8.1 mph
(SE 13 kph)
0.12 in
(3.05 mm)
5SM
07:53
Overcast
Rain
39°F / 4°C 37°F / 3°C 93% 29.53 in
(1000 mb)
SE 6.9 mph
(SE 11 kph)
0.20 in
(5.08 mm)
4SM
06:53
Overcast
41°F / 5°C 37°F / 3°C 87% 29.53 in
(1000 mb)
ESE 16.1 mph
(ESE 26 kph)
0.01 in
(0.25 mm)
10SM
05:53
Overcast
Light Rain
41°F / 5°C 37°F / 3°C 87% 29.53 in
(1000 mb)
SE 12.7 mph
(SE 20 kph)
0.01 in
(0.25 mm)
10SM
04:53
Overcast
41°F / 5°C 37°F / 3°C 87% 29.53 in
(1000 mb)
E 13.8 mph
(E 22 kph)
0.06 in
(1.52 mm)
10SM
04:40
Overcast
Light Rain
41°F / 5°C 37°F / 3°C 87% 29.5 in
(999 mb)
SE 13.8 mph
(SE 22 kph)
0.06 in
(1.52 mm)
10SM
04:04
Overcast
Light Rain
39°F / 4°C 37°F / 3°C 93% 29.53 in
(1000 mb)
NW 3.5 mph
(NW 6 kph)
0.04 in
(1.02 mm)
4SM
03:53
Overcast
Light Rain
41°F / 5°C 37°F / 3°C 87% 29.53 in
(1000 mb)
NW 6.9 mph
(NW 11 kph)
0.09 in
(2.29 mm)
5SM
03:01
Mostly Cloudy
41°F / 5°C 37°F / 3°C 87% 29.5 in
(999 mb)
SE 11.5 mph
(SE 19 kph)
- 10SM
02:53
Overcast
39°F / 4°C 37°F / 3°C 93% 29.5 in
(999 mb)
E 6.9 mph
(E 11 kph)
0.04 in
(1.02 mm)
10SM
02:27
Overcast
Light Rain
41°F / 5°C 37°F / 3°C 87% 29.53 in
(1000 mb)
Calm 0.02 in
(0.51 mm)
9SM
02:05
Overcast
Light Rain
41°F / 5°C 37°F / 3°C 87% 29.53 in
(1000 mb)
ESE 11.5 mph
(ESE 19 kph)
0.02 in
(0.51 mm)
8SM
01:53
Overcast
43°F / 6°C 37°F / 3°C 81% 29.53 in
(1000 mb)
SE 10.4 mph
(SE 17 kph)
0.09 in
(2.29 mm)
10SM
01:51
Overcast
41°F / 5°C 37°F / 3°C 87% 29.53 in
(1000 mb)
ESE 12.7 mph
(ESE 20 kph)
0.09 in
(2.29 mm)
10SM
01:36
Overcast
Rain
41°F / 5°C 37°F / 3°C 87% 29.53 in
(1000 mb)
SE 8.1 mph
(SE 13 kph)
0.09 in
(2.29 mm)
3SM
00:53
Partly Cloudy
41°F / 5°C 37°F / 3°C 87% 29.53 in
(1000 mb)
SE 12.7 mph
(SE 20 kph)
0.02 in
(0.51 mm)
10SM
00:33
Mostly Cloudy
Light Rain
41°F / 5°C 37°F / 3°C 87% 29.53 in
(1000 mb)
ESE 13.8 mph
(ESE 22 kph)
0.02 in
(0.51 mm)
9SM
00:12
Overcast
Light Rain
41°F / 5°C 37°F / 3°C 87% 29.53 in
(1000 mb)
ESE 11.5 mph
(ESE 19 kph)
0.02 in
(0.51 mm)
9SM
Time Weather Temperature Dewpoint Humidity Pressure Winds Precip Visibility


Weather for websites

WeatherForYou.com, LLC is not responsible for any damages or problems caused by this service. Current weather conditions are obtained from the closest station including government and personal stations which may have varying degrees of accuracy. Weather forecasts are derived from the NOAA NDFD. Like all things, this site belongs to Jesus Christ... He just trusts me to maintain it. If you have any questions or comments email webmaster@weatherforyou.com

Copyright © 2014, WeatherForYou.com LLC. All rights reserved.